Regional Weather Roundup
Issued by NWS Charleston, SC

Home | Current Version | Previous Version | Text Only | Print | Product List | Glossary On
Versions: 1 2 3 4 5 6 7 8 9 10 11 12 13 14 15 16 17 18 19 20 21 22 23 24 25 26 27 28 29 30 31 32 33 34 35 36 37 38 39 40 41 42 43 44 45 46 47 48 49 50
000
ASUS42 KCHS 271327
RWRCHS

REGIONAL WEATHER ROUNDUP
NATIONAL WEATHER SERVICE CHARLESTON SC
900 AM EDT THU JUL 27 2017

NOTE: "FAIR" INDICATES FEW OR NO CLOUDS BELOW 12,000 FEET WITH NO
SIGNIFICANT WEATHER AND/OR OBSTRUCTIONS TO VISIBILITY.

NOT ALL STATIONS ARE QUALITY CONTROLLED. USE DATA WITH CAUTION...
ESPECIALLY DEWPOINT OBSERVATIONS.

SCZ027-030-031-034>040-042>050-271400-
...SOUTHEAST SOUTH CAROLINA...

CITY           SKY/WX    TMP DP  RH WIND       PRES   REMARKS
N CHARLESTON   MOSUNNY   80  76  87 S6        30.07R
WATERFRONT PRK   N/A     83  78  84 VRB3      30.05R HX  93
JOHNS ISLAND     N/A     79  75  89 SW6       30.07F
PINOPOLIS        N/A     77  75  94 VRB2      29.99S
MONCKS CORNER    N/A     75  73  94 CALM      30.07S FOG
SUMMERVILLE    CLOUDY    77  73  88 CALM      30.08S
BEAUFORT MCAS  CLOUDY    79  75  87 SE3       30.06R
BEAUFORT ARPT  FAIR      77  70  78 S3        30.06R HAZE
HILTON HEAD IS LGT RAIN  73  73 100 S6        30.06F
WALTERBORO     CLOUDY    73  73 100 CALM      30.09R FOG
ALLENDALE      NOT AVBL

...SOUTHERN MIDLANDS AND PEE DEE...

CITY           SKY/WX    TMP DP  RH WIND       PRES   REMARKS
GEORGETOWN     PTSUNNY   81  79  94 SE6       30.08S
KINGSTREE      FAIR      79  75  89 E3        30.08R FOG
ORANGEBURG     CLOUDY    76  74  93 NE5       30.09R FOG
BARNWELL       CLOUDY    79  77  94 NE5       30.08S
AIKEN          FOG       72  72 100 E3        30.13S VSB 1/2
MANNING        FAIR      81  77  89 CALM      30.08S
COLUMBIA       CLOUDY    79  74  84 S5        30.08S
SUMTER         PTSUNNY   78  74  86 CALM      30.06F
FLORENCE       SUNNY     77  74  90 NE3       30.09R
MYRTLE BEACH   MOSUNNY   82  75  78 SE12      30.07S
N MYRTLE BEACH MOSUNNY   82  75  79 VRB7      30.07R

$$

GAZ063-065-086>088-099>101-113>116-118-119-134>141-150-271400-
...SOUTHEAST GEORGIA...

CITY           SKY/WX    TMP DP  RH WIND       PRES   REMARKS
SAVANNAH ARPT  CLOUDY    76  72  87 S5        30.06R
HUNTER AAF     PTSUNNY   75  73  94 SE8       30.02R
FORT STEWART   PTSUNNY   75  73  94 CALM      30.03R
STATESBORO     CLOUDY    76  76 100 E5        30.07R
SYLVANIA       CLOUDY    77  76  98 E7        30.08S
CLAXTON        CLOUDY    76  75  96 CALM      30.06R FOG

...CSRA...CENTRAL AND FAR SOUTHEAST GEORGIA...

CITY           SKY/WX    TMP DP  RH WIND       PRES   REMARKS
THOMSON        CLOUDY    74  73  96 CALM      30.14R FOG
AUGUSTA-BUSH   FOG       76  75  97 NE3       30.08R VSB 1/2
AUGUSTA-DANIEL CLOUDY    76  72  87 E6        30.09R FOG
SWAINSBORO     FAIR      79  75  89 NE3       30.08S
VIDALIA        CLOUDY    77  75  94 NE5       30.07S
EASTMAN        FAIR      77  77 100 E6        30.10S
HAZLEHURST     CLOUDY    76  76 100 NE3       30.06R
ALMA           LGT RAIN  76  74  93 CALM      30.05R FOG
WAYCROSS       CLOUDY    78  78 100 CALM      30.04S FOG
JESUP          NOT AVBL
BAXLEY         CLOUDY    77  77 100 N3        30.05S
BRUNSWICK      CLOUDY    75  75 100 NW7       30.04R
SAINT SIMONS   CLOUDY    79  77  94 E9        30.02S THUNDER

$$

SCZ027-028-034-036>038-045-046-048>050-GAZ119-141-271400-
...LAKE AND SUPPLEMENTAL COASTAL OBSERVATIONS...

STATION/POSITION TIME  TEMP    WIND        PRES    WAVE   SWELL
                       AIR SEA DIR/SP/G            HT/PER HT/PER/DIR
                 (UTC) (F)     (DEG/KT/KT) (MB)    (FT/S) (FT/S/D)
WINYAH BAY       1230   79     120/  4     1018.0S
LAKE MURRAY      1230   76     110/  4/  6 1017.6
ACE BASIN NERRS  1245   78        CALM     1018.0S
FORT PULASKI     1300   76 84  140/  6/  9 1017.7
SAPELO ISLAND    1300   75      70/  6     1017.0

$$

ANZ835-935-AMZ111-154-330-350-352-354-370-450-454-472-271400-
...C-MAN AND BUOY OBSERVATIONS...

STATION/POSITION TIME  TEMP    WIND        PRES    WAVE   SWELL
                       AIR SEA DIR/SP/G            HT/PER HT/PER/DIR
                 (UTC) (F)     (DEG/KT/KT) (MB)    (FT/S) (FT/S/D)
BUOY 41004       1300   79 83  230/ 17/ 19 1018.0
BUOY 41008       1250   78 80  110/ 10/ 12 1016.8R   2/ 8   2/110/ 8
FOLLY BEACH CMAN 1300   78     250/  3/  5 1018.8R
CAPERS NEARSHORE 1308   80 84  190/ 14/ 19 1017.8R
FRIPP NEARSHORE  1308   77 83  180/  8/ 12 1017.7R


STATION/POSITION TIME  TEMP    WIND        PRES    WAVE   SWELL
                       AIR SEA DIR/SP/G            HT/PER HT/PER/DIR
                 (UTC) (F)     (DEG/KT/KT) (MB)    (FT/S) (FT/S/D)
5E ST. MARYS GA  1300      78                N/A     2/10
FRYING PAN BUOY  1300   82 82  100/ 10/ 14 1017.8
BUOY 41025       1250   81 83  210/  2/  2 1018.5    3/ 8   3/ 50/ 8
CAPE LOOKOUT NC  1300   81      80/  2/  2 1018.2R
BUOY 41002       1250   80 83  280/  8/  8 1017.7R   3/ 7   3/ 40/ 7
BUOY 41010       1300   84 85  190/  8/ 10 1017.5
ST AUGUSTINE FL  1300   78 75  160/  5/  6 1017.0R


$$




USA.gov is the U.S. government's official web portal to all federal, state and local government web resources and services.